軌道要素
Epoch 2017 Jan. 7.0 TT = JDT 2457760.5
T 2017 Jan. 26.26407 TT MPCW
q 2.0404517 (2000.0) P Q
n 0.23739109 Peri. 111.30148 +0.70479261 +0.70515484
a 2.5832104 Node 204.07479 -0.70073928 +0.67493933
e 0.2101101 Incl. 10.96826 -0.11059769 +0.21728682
P 4.15
From 134 observations 2016 Mar. 12-Aug. 9, mean residual 0".6.
|